GW4774 Weather Reports


time (UTC)temp
C
wind
direction
speed
KPH
gust
KPH
rain 1hr
cm
rain 24hr
cm
rain mn
cm
humidity
%
barometer
mb
20260506150022 9 75 3.2 9.7 0.00 3.35 1.60 79 1010.2
20260506144529 9 237 1.6 9.7 0.00 3.35 1.60 85 1010.2
20260506143014 8 277 1.6 9.7 0.00 3.35 1.60 88 1009.9
20260506141516 8 253 0.0 6.4 0.00 3.35 1.60 91 1010.1
20260506140022 8 57 3.2 11.3 0.00 3.35 1.60 92 1009.9
20260506134504 8 23 1.6 6.4 0.00 3.35 1.60 93 1010.1
20260506133012 7 240 0.0 6.4 0.00 3.35 1.60 94 1009.7
20260506131516 7 11 1.6 4.8 0.00 3.35 1.60 94 1009.4
20260506130026 7 40 0.0 4.8 0.00 3.35 1.60 95 1009.4
20260506124526 7 32 0.0 3.2 0.00 3.35 1.60 95 1009.2
20260506123006 7 110 0.0 3.2 0.00 3.35 1.60 95 1008.9
20260506120014 7 38 1.6 4.8 0.00 3.35 1.60 95 1008.6
20260506114519 7 222 0.0 1.6 0.00 3.35 1.60 95 1008.8
20260506113026 7 130 0.0 0.0 0.00 3.35 1.60 95 1008.1
20260506111523 7 293 0.0 0.0 0.00 3.35 1.60 95 1007.9
20260506110012 7 103 0.0 0.0 0.00 3.35 1.60 95 1008.4
20260506101526 7 349 0.0 0.0 0.13 3.35 1.60 95 1007.2
20260506100025 7 18 1.6 4.8 0.18 3.35 1.60 95 1007.0
20260506094527 7 5 0.0 1.6 0.18 3.33 1.57 94 1007.5
20260506090025 6 17 0.0 4.8 0.18 3.17 1.42 94 1007.6
20260506084526 6 342 3.2 11.3 0.30 3.15 1.40 94 1007.4
20260506083013 6 359 0.0 11.3 0.41 3.12 1.37 94 1007.2
20260506081505 6 304 1.6 11.3 0.46 3.07 1.32 94 1007.4
20260506073013 7 25 3.2 11.3 0.33 2.72 0.97 94 1006.8
20260506071519 7 335 1.6 11.3 0.30 2.62 0.86 94 1006.8
20260506041512 9 79 0.0 6.4 0.23 1.83 0.08 94 1008.0
20260506040014 9 14 1.6 8.0 0.20 1.75 0.00 94 1008.1
20260506034518 9 350 1.6 6.4 0.15 1.68 1.68 94 1008.3
20260506033019 9 19 4.8 11.3 0.18 1.63 1.63 94 1008.2
20260506031525 9 355 3.2 8.0 0.28 1.60 1.60 94 1008.0
20260506030026 9 43 3.2 8.0 0.48 1.55 1.55 94 1008.2
20260506024513 10 313 0.0 3.2 0.56 1.52 1.52 93 1008.8
20260506023020 10 18 1.6 8.0 0.53 1.45 1.45 93 1008.5
20260506021522 10 71 3.2 11.3 0.51 1.32 1.32 93 1008.1
20260506020006 10 76 3.2 9.7 0.28 1.07 1.07 92 1007.7
20260506014512 11 358 4.8 8.0 0.20 0.97 0.97 92 1007.5
20260506013013 12 33 3.2 8.0 0.18 0.91 0.91 92 1007.4
20260506011517 12 347 1.6 8.0 0.10 0.81 0.81 91 1007.3
20260506010023 13 198 0.0 0.0 0.10 0.79 0.79 92 1007.2
20260506004509 13 198 0.0 0.0 0.13 0.76 0.76 92 1007.4
20260506003028 13 198 0.0 0.0 0.18 0.74 0.74 91 1007.3
20260506001516 13 198 0.0 0.0 0.43 0.71 0.71 91 1007.3
20260506000026 13 198 0.0 0.0 0.69 0.69 0.69 90 1007.4
20260505234546 13 198 0.0 0.0 0.64 0.64 0.64 90 1007.4
20260505233015 14 198 0.0 4.8 0.56 0.56 0.56 89 1007.6
20260505231524 15 259 1.6 8.0 0.28 0.28 0.28 87 1008.1
20260505230015 15 276 0.0 3.2 0.00 0.00 0.00 85 1007.2
20260505224528 15 263 0.0 4.8 0.00 0.00 0.00 85 1006.9
20260505223024 15 62 0.0 4.8 0.00 0.00 0.00 84 1007.0
20260505221510 15 53 0.0 8.0 0.00 0.00 0.00 83 1007.1
20260505220015 16 6 0.0 4.8 0.00 0.00 0.00 82 1007.2
20260505214521 16 271 0.0 4.8 0.00 0.00 0.00 81 1007.3
20260505213028 17 293 1.6 4.8 0.00 0.00 0.00 80 1007.2
20260505211525 17 350 0.0 4.8 0.00 0.00 0.00 78 1007.2
20260505210029 17 265 0.0 1.6 0.00 0.00 0.00 77 1007.1
20260505204524 17 225 0.0 6.4 0.00 0.00 0.00 76 1007.0
20260505203002 17 122 0.0 8.0 0.00 0.00 0.00 74 1006.9
20260505201506 18 2 1.6 8.0 0.00 0.00 0.00 70 1007.0
20260505200012 19 211 0.0 3.2 0.00 0.00 0.00 67 1007.0
20260505194508 20 142 0.0 1.6 0.00 0.00 0.00 68 1007.0
20260505191504 19 262 0.0 1.6 0.00 0.00 0.00 69 1007.3
20260505190006 19 264 0.0 1.6 0.00 0.00 0.00 69 1007.6
20260505184521 19 264 0.0 1.6 0.00 0.00 0.00 68 1007.8
20260505180004 19 247 3.2 17.7 0.00 0.00 0.00 65 1007.6
20260505174513 20 301 3.2 11.3 0.00 0.00 0.00 66 1007.4
20260505173019 20 200 0.0 8.0 0.00 0.00 0.00 65 1007.4
20260505164505 21 225 1.6 14.5 0.00 0.00 0.00 64 1007.3
20260505163009 21 146 1.6 12.9 0.00 0.00 0.00 61 1007.3
20260505161513 22 256 3.2 11.3 0.00 0.00 0.00 59 1007.3
20260505153017 21 30 3.2 12.9 0.00 0.00 0.00 63 1006.7
20260505151510 21 240 3.2 11.3 0.00 0.00 0.00 63 1006.8